Flag for US Virgin Islands

Past Weather in Christiansted, US Virgin Islands — Yesterday and Last 2 Weeks

Now
81 °F

Overcast.


Feels Like: 86 °F
Forecast: 87 / 80 °F
Wind: 6 mph from North

Location: Christiansted / Henry E. Rohlsen Airport - Saint Croix

Current Time: Jul 8, 2020 at 10:58:23 pm

Latest Report: Jul 8, 2020 at 9:53 pm


Visibility: 10 mi

Pressure: 30.01 "Hg

Humidity: 77%

Dew Point: 73 °F

Location of ChristianstedLocation

Past Weather in Christiansted — Graph

°F

Christiansted Temperature Yesterday

Maximum temperature yesterday: 90 °F (at 10:53 am)
Minimum temperature yesterday: 78 °F (at 5:53 pm)
Average temperature yesterday: 83 °F

High & Low Weather Summary for the Past Weeks

 TemperatureHumidityPressure
High93 °F (Jun 25, 11:53 am)88% (Jun 28, 9:38 pm)30.08 "Hg (Jun 28, 9:38 pm)
Low75 °F (Jun 28, 9:38 pm)47% (Jun 25, 11:53 am)29.94 "Hg (Jul 1, 4:53 pm)
Average85 °F70%29.99 "Hg
* Reported Jun 23 8:53 pm — Jul 8 8:53 pm, Christiansted. Weather by CustomWeather, © 2020

Note: Actual official high and low records may vary slightly from our data, if they occured in-between our weather recording intervals... More about our weather records

Christiansted Weather History for the Previous 24 Hours

Scroll right to see more
 ConditionsComfort  
Time TempWeatherWind HumidityBarometerVisibility
8:53 pm
Wed, Jul 8
82 °FOvercast.8 mph74%29.99 "Hg10 mi
8:00 pm84 °FOvercast.10 mph72%29.97 "Hg10 mi
7:00 pm84 °FOvercast.12 mph70%29.96 "Hg10 mi
5:53 pm86 °FBroken clouds.15 mph65%29.95 "Hg10 mi
4:53 pm87 °FOvercast.16 mph65%29.95 "Hg10 mi
3:53 pm88 °FOvercast.20 mph61%29.96 "Hg10 mi
2:53 pm89 °FMostly cloudy.21 mph63%29.96 "Hg10 mi
1:53 pm90 °FMostly cloudy.14 mph63%29.98 "Hg10 mi
1:41 pm90 °FMostly cloudy.16 mph63%30.00 "Hg10 mi
1:34 pm90 °FMostly cloudy.20 mph63%29.99 "Hg10 mi
1:03 pm91 °FMostly cloudy.20 mph61%30.01 "Hg10 mi
11:53 am90 °FBroken clouds.17 mph66%30.01 "Hg10 mi
10:53 am89 °FBroken clouds.21 mph68%30.01 "Hg10 mi
10:30 am88 °FPartly sunny.17 mph70%30.01 "Hg10 mi
9:53 am89 °FPassing clouds.20 mph65%30.00 "Hg10 mi
8:53 am87 °FBroken clouds.18 mph72%29.99 "Hg10 mi
7:53 am86 °FBroken clouds.14 mph75%29.98 "Hg10 mi
7:31 am86 °FBroken clouds.14 mph75%29.99 "Hg10 mi
6:53 am85 °FBroken clouds.17 mph75%29.98 "Hg10 mi
6:49 am84 °FBroken clouds.16 mph74%29.98 "Hg10 mi
6:13 am84 °FBroken clouds.16 mph77%29.99 "Hg10 mi
6:04 am84 °FPartly sunny.14 mph80%29.98 "Hg10 mi
5:53 am84 °FBroken clouds.13 mph77%29.97 "Hg10 mi
4:53 am84 °FPassing clouds.16 mph77%29.96 "Hg10 mi
3:53 am83 °FPassing clouds.14 mph79%29.94 "Hg10 mi
3:37 am83 °FPassing clouds.12 mph79%29.95 "Hg10 mi
3:07 am83 °FPartly cloudy.13 mph79%29.95 "Hg10 mi
2:53 am83 °FOvercast.14 mph79%29.94 "Hg10 mi
2:28 am83 °FPassing clouds.14 mph79%29.95 "Hg10 mi
2:20 am83 °FPartly cloudy.14 mph79%29.95 "Hg10 mi
1:53 am83 °FPassing clouds.15 mph82%29.95 "Hg10 mi
1:34 am83 °FPassing clouds.16 mph79%29.95 "Hg10 mi
1:11 am84 °FPartly cloudy.14 mph77%29.96 "Hg10 mi
1:03 am84 °FPartly cloudy.14 mph77%29.97 "Hg10 mi
12:53 am83 °FPassing clouds.14 mph79%29.96 "Hg10 mi
11:53 pm
Tue, Jul 7
83 °FPassing clouds.16 mph77%29.98 "Hg10 mi
11:20 pm82 °FPassing clouds.9 mph82%29.99 "Hg10 mi
10:53 pm83 °FPassing clouds.13 mph79%29.98 "Hg10 mi
10:01 pm82 °FPassing clouds.16 mph82%29.98 "Hg10 mi
Weather by CustomWeather, © 2020

See weather overview